Content
SEND FEEDBACK

Daily
Averages
Monthly
Summary
United States of America

CISCO, CALIFORNIA


Home > North America > United States > California
Elevation: 5750 feet     Latitude: 39 18N     Longitude: 120 31W

WEATHER
 
SELECT A DAY
Number of Records: 233,197;   Date Range: 1/1/95 - 9/29/14
 
SHARE

PRINT THIS DATA

[ ← Previous Day ]
WEATHER ALMANAC - FEBRUARY 5, 2013
[ Next Day → ]
[ °C ]   °F
Weather ElementAverageHighLow
Temperature38.8 °F44.1 °F (1:52 am)30.9 °F (9:52 pm)
Dewpoint28.6 °F36 °F (5:52 pm)14 °F (11:52 pm)
Humidity71 %100 % (5:57 pm)38 % (6:52 am)
Barometer30.02 in30.05 in (5:43 pm)29.96 in (1:52 pm)
Wind Speed5 mph12.7 mph (12:52 pm)
Wind Gust17.3 mph (2:52 pm)
Weather ElementAverage
Visibility7.9 mi
Wind DirectionESE (117.5 °)

Weather ElementTotal
Precipitation---
Heating Degree Days27.5 (Base 65)
Averaged from 32 records on February 5, 2013
WEATHER CONDITIONS BREAKOUT
WIND DIRECTION BREAKOUT
WEATHER BY HOUR - FEBRUARY 5, 2013
[ °C ]   °F
Local TimeTemperatureDewpointHumidityBarometerVisibilityWind DirectionWind SpeedGust SpeedPrecipitationEventsConditions
1:52 AM44.1 °F21.9 °F42 %30.00 in10.0 miSSE (150°)5.8 mphClear
2:52 AM43.0 °F21.0 °F42 %30.00 in10.0 miSE (130°)5.8 mphClear
3:52 AM43.0 °F19.9 °F40 %30.01 in10.0 miSE (130°)4.6 mphClear
4:52 AM41.0 °F19.0 °F41 %29.99 in10.0 miESE (120°)3.5 mphClear
5:52 AM41.0 °F19.0 °F41 %29.99 in10.0 miSE (140°)4.6 mphClear
6:52 AM42.1 °F18.0 °F38 %29.99 in10.0 miSE (140°)5.8 mphClear
7:52 AM42.1 °F18.0 °F38 %30.00 in10.0 miSouth (170°)5.8 mphClear
8:52 AM43.0 °F24.1 °F47 %30.01 in10.0 miSouth (170°)9.2 mphClear
9:52 AM44.1 °F27.0 °F51 %30.01 in10.0 miSouth (180°)10.4 mphClear
10:52 AM44.1 °F28.9 °F55 %30.00 in10.0 miSouth (180°)10.4 mphClear
11:52 AM43.0 °F28.9 °F58 %29.99 in10.0 miSouth (170°)11.5 mphClear
12:52 PM43.0 °F30.9 °F62 %29.98 in10.0 miSouth (170°)12.7 mphClear
1:52 PM44.1 °F32.0 °F63 %29.96 in10.0 miSSW (200°)9.2 mphClear
2:52 PM43.0 °F30.9 °F62 %29.96 in10.0 miSouth (190°)11.5 mph17.3 mphClear
3:52 PM42.1 °F33.1 °F70 %29.96 in10.0 miSouth (180°)9.2 mphClear
4:52 PM41.0 °F34.0 °F76 %29.98 in10.0 miSSW (200°)6.9 mphClear
5:43 PM37.4 °F35.6 °F93 %30.05 in6.0 miCalmScattered Clouds
5:52 PM37.0 °F36.0 °F96 %30.01 in2.5 miCalmMostly Cloudy
5:57 PM35.6 °F35.6 °F100 %30.04 in4.0 miCalmScattered Clouds
6:08 PM35.6 °F35.6 °F100 %30.04 in6.0 miSE (130°)3.5 mphMostly Cloudy
6:42 PM35.6 °F33.8 °F93 %30.04 in10.0 miSE (140°)4.6 mphScattered Clouds
6:52 PM36.0 °F34.0 °F93 %30.01 in8.0 miCalmClear
7:03 PM35.6 °F33.8 °F93 %30.05 in2.5 miCalmScattered Clouds
7:05 PM35.6 °F33.8 °F93 %30.05 in1.0 miSouth (190°)3.5 mphMist
7:09 PM35.6 °F35.6 °F100 %30.05 in0.2 miSouth (180°)3.5 mphFogFog
7:39 PM33.8 °F33.8 °F100 %30.05 in1.0 miSE (140°)3.5 mphMist
7:43 PM33.8 °F33.8 °F100 %30.05 in3.0 miSSE (150°)3.5 mphMostly Cloudy
7:52 PM34.0 °F32.0 °F92 %30.03 in9.0 miCalmScattered Clouds
8:52 PM32.0 °F30.9 °F96 %30.04 in9.0 miCalmClear
9:52 PM30.9 °F28.9 °F92 %30.05 in10.0 miEast (90°)3.5 mphClear
10:52 PM33.1 °F21.9 °F64 %30.05 in10.0 miENE (70°)3.5 mphClear
11:52 PM36.0 °F14.0 °F41 %30.05 in10.0 miNE (50°)3.5 mphClear
Hourly data recorded from KBLU, located miles away from Cisco, California







STORIES FROM OUR PARTNERS